This is the latest recevied weather packets stored in our database for station/object XE2AD-5. If no packets are shown the sender has not sent any weather packets the latest 10 day(s).
| Time | Temp. | Humidity | Pressure | Rain* | Wind** | Luminosity | Snow |
|---|---|---|---|---|---|---|---|
| 1777742130 | 26.11° C | 23% | 807 hPa | - | - | - | - |
| 1777738829 | 26.11° C | 22% | 807.3 hPa | - | - | - | - |
| 1777735529 | 25.56° C | 21% | 807.2 hPa | - | - | - | - |
| 1777732229 | 25.56° C | 20% | 807 hPa | - | - | - | - |
| 1777728928 | 26.11° C | 20% | 806.7 hPa | - | - | - | - |
| 1777725628 | 26.11° C | 19% | 805.9 hPa | - | - | - | - |
| 1777722327 | 26.67° C | 19% | 805.6 hPa | - | - | - | - |
| 1777719027 | 27.22° C | 20% | 805.4 hPa | - | - | - | - |
| 1777715727 | 27.22° C | 18% | 805.4 hPa | - | - | - | - |
| 1777712427 | 27.78° C | 19% | 805.4 hPa | - | - | - | - |
| 1777709127 | 28.33° C | 17% | 805.6 hPa | - | - | - | - |
| 1777705827 | 28.33° C | 17% | 805.9 hPa | - | - | - | - |
| 1777702526 | 28.89° C | 16% | 806.1 hPa | - | - | - | - |
| 1777699226 | 29.44° C | 16% | 806.1 hPa | - | - | - | - |
| 1777695926 | 30° C | 16% | 805.9 hPa | - | - | - | - |
| 1777692626 | 30° C | 16% | 805.2 hPa | - | - | - | - |
| 1777689326 | 30.56° C | 16% | 804.8 hPa | - | - | - | - |
| 1777686026 | 30.56° C | 17% | 804.1 hPa | - | - | - | - |
| 1777682725 | 30.56° C | 17% | 803.3 hPa | - | - | - | - |
| 1777679425 | 30.56° C | 17% | 802.6 hPa | - | - | - | - |
| 1777676125 | 30.56° C | 18% | 802.2 hPa | - | - | - | - |
| 1777672825 | 30.56° C | 18% | 802.2 hPa | - | - | - | - |
| 1777669525 | 30° C | 18% | 802.7 hPa | - | - | - | - |
| 1777666225 | 29.44° C | 19% | 803.3 hPa | - | - | - | - |
| 1777662924 | 28.89° C | 20% | 803.9 hPa | - | - | - | - |
* Rain since midnight (hover to see other rain measurements)
** Current wind speed in m/s (hover to see current wind gust speed)